Regional Weather Roundup
Issued by NWS Midland/Odessa, TX

Skip options and go directly to product.
Home | Oldest Version | Previous Version | Current Version | All | Text Only | Save Text | Print | Product List | Glossary Off

Skip product version selection by date and time.   

559
ASUS44 KMAF 231410
RWRMAF
MIDLAND AREA WEATHER ROUNDUP
NATIONAL WEATHER SERVICE MIDLAND TX
800 AM CST SUN NOV 23 2014

...IN SOUTHWEST TEXAS AND SOUTHEAST NEW MEXICO...

CITY           SKY/WX    TMP DP  RH WIND       PRES   REMARKS
ALPINE         CLEAR     50  30  46 SW13G20   29.91R
ANDREWS        FAIR      47  25  43 NW12      29.70R
ARTESIA        NOT AVBL
BIG SPRING     CLEAR     47  34  58 SW6       29.68R
CARLSBAD       CLEAR     58  18  21 W29G43    29.71R
DRYDEN           N/A     61  36  39 W21G30    29.72S
FORT STOCKTON  CLEAR     52  31  44 SW12      29.75R
GUAD PASS      CLEAR     46  21  37 W35       29.84R WCI  36
HOBBS          CLEAR     46  19  34 W12       29.72R
MARFA          CLEAR     48  28  46 SW8G17    29.87S
MIDLAND AIRPK  CLEAR     54  29  38 W10       29.68S
MIDLAND INTL   CLEAR     51  28  41 W14       29.67S
ODESSA         CLEAR     51  25  36 W7        29.69R
PECOS          CLEAR     54  30  39 W7        29.75R
PRESIDIO       FAIR      48  37  64 E5        29.88S
SEMINOLE       CLEAR     48  22  35 W15       29.69R
SNYDER         CLEAR     43  38  83 S10       29.60F WCI  37
WINK           CLEAR     58  21  24 W21       29.70R
$$
...OTHER STATIONS IN TEXAS...

CITY           SKY/WX    TMP DP  RH WIND       PRES   REMARKS
ABILENE        CLEAR     50  43  77 S10       29.59F
AMARILLO       CLEAR     52  22  30 W18G26    29.51R
AUSTIN         SUNNY     57  55  93 SW8       29.66F
BROWNSVILLE    FOG       63  62  97 SW3       29.79R VSB<1/4
CORPUS CHRISTI FOG       59  58  96 SW8       29.74S VSB 1/8
DALLAS FTW     PTCLDY    56  53  90 S9        29.56F
DEL RIO        CLEAR     48  46  93 E3        29.72R
EL PASO        PTCLDY    48  22  35 E5        29.90R
HOUSTON INT    MOSUNNY   63  60  90 VRB3      29.66R
LUBBOCK        PTCLDY    51  22  31 W20G25    29.58R
SAN ANGELO     CLEAR     50  40  68 SW3       29.67R
SAN ANTONIO    CLEAR     55  51  86 W8        29.71S
WACO           CLEAR     54  53  97 S9        29.62F
WICHITA FALLS  NOT AVBL
$$
...OTHER LOCATIONS IN NEW MEXICO...

CITY           SKY/WX    TMP DP  RH WIND       PRES   REMARKS
ALAMAGORDO     PTCLDY    39  16  38 MISG      29.86R
ALBUQUERQUE    PTCLDY    43  21  41 W15       29.82R WCI  36
CANNON AFB     CLEAR     54  19  26 W17       29.67F
CLOVIS         CLEAR     48  19  32 W24G33    29.62R
HOLLOMAN AFB   PTCLDY    39  18  41 S7        29.84R WCI  34
ROSWELL        CLEAR     48  21  34 VRB3      29.70R
RUIDOSO        PTCLDY    41  14  33 W21G26    29.83R WCI  32
SANTA FE       MOCLDY    34  18  52 W7        29.77S WCI  28
TRUTH OR CONSE CLEAR     42  19  39 CALM      29.86R
TUCUMCARI        N/A     46  22  38 W10       29.58R
$$

USA.gov is the U.S. government's official web portal to all federal, state and local government web resources and services.